Wind_Speed
25 26 25 30 24 26 24 21 15 13 9 9 6 12 9 8 9 9 6 6 10 11 13 10 9 14 22 14 7 7 9 9 11 12 13 17 20 25 23 25 33 23 23 18
28 32 29 31 32 30 27 22 21 19 11 14 5 14 8 4 6 9 9 10 7 12 12 16 17 18 21 21 11 5 2 7 10 15 20 16 16 16 21 17 19 17 17 20
33 31 32 32 36 37 35 32 27 24 20 14 7 12 17 10 16 16 17 17 17 12 12 15 20 24 23 24 17 10 6 7 11 14 19 19 17 15 20 17 16 24 23 20
37 30 34 37 37 39 35 35 32 26 27 20 16 14 17 15 19 21 18 15 18 16 14 15 18 24 24 29 24 16 6 3 4 7 11 16 16 16 18 22 25 25 24 19
40 33 35 39 44 40 37 36 35 27 32 34 29 21 25 26 30 22 22 24 23 24 22 16 17 21 26 30 29 20 9 5 3 1 5 11 15 18 22 27 26 26 22 18
42 35 32 36 39 42 41 37 36 35 34 33 30 30 31 28 35 37 32 26 28 23 23 19 19 20 25 31 29 19 10 5 5 2 1 7 14 18 28 30 25 27 21 21
45 40 36 39 39 43 43 44 43 43 43 41 32 35 37 31 33 36 37 33 29 31 22 22 24 22 24 27 30 18 9 4 6 4 1 7 14 17 31 35 32 28 24 25
42 41 40 37 38 43 46 47 48 50 49 45 37 41 42 42 44 40 41 34 35 33 36 27 22 24 29 25 28 21 10 4 4 6 2 6 14 23 36 38 32 28 24 25
38 43 42 39 43 43 40 39 43 43 47 48 44 44 44 42 42 43 45 37 36 36 36 32 27 21 22 26 24 28 15 7 3 6 5 0 11 25 37 36 29 29 25 24
34 44 41 42 40 39 41 43 42 42 43 42 41 41 42 40 42 41 38 31 32 35 35 33 34 28 31 27 25 25 20 12 7 6 10 6 7 19 35 36 32 27 29 26
33 39 41 42 41 42 41 41 43 45 46 43 40 38 42 42 40 40 39 34 31 36 40 39 38 35 33 27 21 27 25 16 11 9 12 11 8 11 27 37 34 33 30 28
30 34 37 43 46 46 43 41 41 44 44 38 36 35 38 39 32 37 37 35 35 39 37 37 37 40 40 36 31 29 29 20 19 16 12 10 11 7 7 17 29 36 37 31
31 29 36 41 41 44 45 46 49 45 39 38 35 38 36 35 29 35 35 35 30 36 33 30 35 34 33 40 43 40 34 33 24 26 21 17 11 4 2 6 11 13 23 32
36 34 36 34 43 47 47 51 49 42 38 36 34 38 35 32 32 33 35 31 27 32 34 24 25 26 31 45 42 35 38 32 27 25 29 26 22 20 13 4 4 4 4 10
40 37 34 37 38 42 44 44 40 40 37 34 38 37 36 33 30 29 33 25 24 27 32 29 26 26 33 41 32 31 42 39 27 27 25 29 31 26 21 17 12 9 8 8
43 40 39 38 40 40 43 39 37 41 38 38 40 39 36 30 26 28 28 26 25 26 27 28 28 35 40 39 32 31 35 34 23 26 24 25 28 29 27 25 21 20 20 17
51 48 43 46 42 39 37 42 43 40 39 37 39 38 33 28 26 27 27 27 27 29 32 33 34 36 38 32 21 25 37 27 24 22 23 24 26 30 33 31 30 27 22 19
59 55 50 48 49 39 37 46 46 39 39 38 37 37 31 28 27 27 29 30 31 32 36 40 38 33 34 29 26 34 34 28 21 21 21 23 25 26 29 30 28 26 19 17
64 60 56 54 51 45 42 46 45 41 40 39 35 31 31 29 29 31 34 31 31 32 34 34 33 34 34 35 35 32 30 24 19 17 19 19 22 21 24 26 26 22 16 15
68 66 60 58 56 49 48 47 43 41 41 39 33 32 32 31 32 31 30 29 30 32 33 34 32 30 36 32 27 30 28 23 18 15 19 17 20 22 25 26 26 23 18 18
74 73 65 61 60 55 57 54 42 42 41 42 38 36 36 34 28 24 27 28 29 30 32 31 31 28 30 24 25 27 28 23 18 15 19 19 20 22 24 26 27 25 20 17
79 77 71 66 63 61 61 56 47 39 40 42 41 36 34 27 26 25 27 26 26 28 29 29 28 27 26 24 26 26 27 22 14 16 20 19 19 21 22 23 25 26 26 26
82 78 78 69 67 63 66 60 50 42 43 40 40 39 38 33 27 27 30 29 28 27 26 24 22 26 25 24 26 24 23 22 15 15 20 20 20 19 20 21 23 24 26 25
82 79 80 76 74 70 68 63 51 43 43 44 41 43 35 36 31 31 35 31 28 26 24 23 21 23 22 22 25 23 21 22 18 17 23 22 23 23 21 21 24 26 26 27
83 81 83 80 78 76 71 61 53 44 43 48 44 39 34 36 29 29 27 22 22 23 18 21 20 22 23 24 25 24 19 21 23 21 25 26 25 26 24 23 24 26 28 30
81 81 87 84 81 77 72 63 54 49 42 41 37 37 35 32 25 24 23 21 23 21 16 16 17 20 23 23 25 25 25 23 23 25 24 27 27 27 26 22 21 22 24 28
Wind_Direction
228 231 227 228 225 229 224 233 243 265 233 259 291 282 255 290 260 288 276 325 347 345 9 352 2 10 16 10 341 294 273 281 282 267 244 241 246 242 229 239 233 227 226 224
232 228 230 225 223 223 230 224 238 258 223 256 195 270 258 285 298 303 320 349 338 342 358 358 347 360 2 9 348 338 280 254 255 246 249 254 254 243 224 218 222 230 246 236
241 224 227 225 227 230 236 236 240 248 226 219 223 252 222 241 284 293 293 295 297 305 323 342 345 344 352 357 359 342 322 281 252 243 246 250 246 221 209 195 177 164 224 224
243 231 227 229 231 229 230 238 235 238 224 220 239 237 251 250 244 274 270 290 283 280 311 319 340 332 339 350 351 344 8 334 274 264 250 229 216 199 196 182 175 181 193 197
247 229 228 232 229 232 228 233 240 234 231 238 253 240 239 249 259 272 280 266 275 288 285 309 320 326 331 347 344 343 341 20 23 256 231 218 197 181 172 175 179 181 183 184
247 240 231 236 234 236 230 229 236 241 242 236 239 245 253 258 260 268 286 280 267 280 296 284 307 315 323 339 344 338 328 25 52 50 286 190 185 174 178 177 180 172 169 170
243 242 230 233 237 232 233 228 227 232 237 240 228 247 248 257 265 272 280 278 273 268 278 275 286 300 307 324 341 334 314 353 66 80 244 187 188 179 177 175 181 170 165 162
241 241 241 232 240 238 233 233 230 232 237 241 246 246 253 255 264 270 273 271 269 269 270 276 292 300 291 303 338 334 299 293 89 84 78 207 199 181 174 176 187 178 179 177
239 241 239 237 234 237 240 241 240 242 244 243 244 248 247 252 258 263 265 267 264 270 270 276 275 290 286 295 309 332 304 248 144 91 72 60 200 186 183 186 190 192 192 188
243 243 244 244 244 243 239 238 238 238 237 240 242 245 251 248 248 253 258 262 267 277 277 279 283 286 286 287 303 321 309 256 196 128 102 87 190 192 195 196 198 199 196 198
240 246 248 248 249 248 244 241 242 241 239 235 232 234 242 242 243 251 256 261 265 272 279 281 284 276 284 289 298 303 315 260 231 154 138 122 113 197 203 205 208 210 210 213
240 242 244 247 246 246 248 249 249 244 244 243 239 237 240 246 249 247 248 252 262 264 266 272 272 271 271 280 284 296 303 278 237 200 162 146 123 108 157 202 218 221 221 230
243 237 243 241 244 248 250 248 247 248 243 243 241 245 238 239 248 260 260 261 264 270 269 279 276 275 277 278 281 281 290 301 255 221 213 222 221 190 133 166 169 200 221 219
239 240 244 246 238 235 240 246 247 248 249 247 243 248 245 241 243 254 265 267 267 268 278 278 278 278 279 271 274 285 289 294 264 250 228 227 241 251 242 223 172 157 211 238
245 236 238 248 246 242 240 245 248 249 246 243 245 246 245 244 248 248 255 261 264 263 271 271 271 275 269 273 281 287 289 286 271 267 254 232 236 241 240 244 259 267 278 271
236 236 237 239 243 239 237 239 243 247 242 239 241 239 242 242 245 247 247 248 247 245 252 257 254 255 260 274 295 295 276 274 274 263 258 247 229 236 242 239 255 266 269 272
240 232 228 236 235 240 241 235 234 233 236 235 238 241 240 238 238 240 241 237 236 238 242 248 254 259 269 285 290 271 262 271 274 261 261 248 236 236 235 242 250 256 257 261
244 234 225 232 234 230 236 237 234 229 234 237 240 241 239 237 237 234 237 236 235 236 239 244 251 260 276 279 261 256 268 274 273 267 258 243 239 229 234 236 239 245 241 246
245 238 230 227 233 227 229 237 234 229 231 235 236 238 235 232 231 231 235 239 243 247 253 257 262 259 262 268 264 264 268 272 268 261 259 246 235 228 225 226 228 218 227 236
244 238 228 229 228 227 228 234 231 226 229 229 226 231 231 230 231 232 235 237 240 244 247 251 253 249 252 254 258 266 268 271 277 254 254 244 240 233 225 221 209 216 232 233
239 239 225 224 227 225 227 229 225 222 223 227 223 222 224 226 227 234 237 235 237 244 247 248 252 250 255 250 253 262 266 271 279 242 253 251 241 230 229 216 212 214 222 230
235 231 229 219 223 227 228 227 224 220 221 226 227 227 230 224 227 228 231 228 231 237 242 246 250 252 253 256 260 261 263 268 264 233 253 248 241 234 229 226 225 222 222 226
230 226 226 218 221 223 230 227 220 216 215 220 227 224 225 218 217 222 225 221 223 226 233 239 241 246 247 246 254 254 259 263 264 233 243 241 238 231 231 233 238 239 234 230
228 221 219 219 217 216 224 227 219 214 215 214 222 233 227 228 216 222 224 215 215 220 229 238 242 249 248 251 254 255 255 261 260 242 234 235 233 235 237 244 250 250 244 236
224 219 215 215 214 214 218 221 220 213 215 213 214 223 231 234 226 233 239 236 231 231 231 240 247 252 249 243 247 256 252 250 248 233 235 233 233 239 248 252 259 258 247 236
220 214 210 210 210 212 214 215 213 211 205 217 217 220 223 233 221 236 251 249 236 234 237 243 255 262 260 257 251 251 253 252 246 235 233 237 236 242 250 260 271 260 237 225
Height
10948 10949 10951 10949 10956 10958 10960 10963 10967 10967 10966 10965 10964 10961 10959 10962 10962 10961 10961 10964 10961 10959 10957 10957 10954 10953 10951 10949 10948 10948 10949 10951 10952 10953 10954 10957 10960 10962 10966 10968 10972 10978 10983 10987
10942 10942 10946 10949 10951 10952 10955 10959 10962 10963 10963 10961 10961 10962 10962 10960 10959 10959 10959 10959 10961 10958 10956 10955 10953 10951 10950 10952 10950 10948 10948 10948 10947 10949 10950 10953 10954 10956 10961 10964 10971 10979 10984 10985
10932 10939 10941 10944 10944 10946 10949 10953 10956 10958 10960 10958 10959 10960 10961 10961 10961 10960 10957 10957 10958 10958 10957 10954 10952 10950 10951 10951 10950 10948 10945 10944 10943 10943 10942 10944 10947 10950 10955 10962 10967 10970 10977 10981
10922 10932 10934 10936 10937 10939 10943 10945 10950 10952 10955 10956 10958 10958 10959 10960 10960 10958 10957 10955 10956 10959 10959 10954 10952 10951 10952 10951 10948 10946 10942 10940 10938 10936 10937 10938 10941 10945 10951 10958 10963 10968 10972 10975
10914 10923 10926 10927 10928 10932 10938 10940 10944 10952 10950 10953 10956 10958 10954 10958 10957 10955 10956 10954 10953 10955 10957 10954 10952 10950 10950 10950 10948 10945 10941 10938 10935 10934 10934 10935 10937 10943 10949 10954 10959 10965 10968 10971
10905 10914 10922 10920 10924 10925 10930 10935 10938 10940 10943 10946 10951 10951 10952 10954 10953 10952 10951 10952 10953 10952 10953 10954 10952 10950 10949 10949 10948 10945 10942 10937 10934 10932 10933 10935 10937 10941 10947 10952 10957 10961 10964 10967
10895 10903 10911 10912 10914 10916 10920 10926 10930 10930 10930 10933 10945 10946 10946 10949 10947 10948 10948 10947 10946 10948 10953 10952 10950 10949 10949 10948 10947 10945 10942 10937 10933 10932 10933 10935 10937 10941 10944 10949 10954 10959 10960 10963
10889 10895 10900 10906 10906 10907 10911 10916 10922 10923 10925 10931 10941 10941 10941 10945 10943 10944 10941 10944 10941 10943 10948 10949 10949 10947 10947 10947 10946 10944 10943 10939 10934 10932 10934 10936 10936 10940 10944 10947 10950 10954 10959 10960
10885 10884 10888 10896 10897 10900 10908 10913 10914 10920 10922 10928 10934 10932 10935 10938 10938 10938 10936 10939 10937 10936 10941 10945 10948 10946 10946 10946 10945 10946 10942 10939 10935 10933 10934 10936 10937 10939 10944 10947 10949 10952 10956 10961
10880 10875 10882 10884 10890 10895 10900 10902 10904 10908 10913 10919 10924 10925 10925 10932 10933 10931 10929 10933 10932 10931 10933 10936 10939 10942 10943 10942 10940 10942 10941 10938 10937 10935 10936 10937 10938 10939 10943 10946 10950 10953 10955 10959
10871 10871 10875 10878 10884 10884 10888 10893 10896 10898 10901 10906 10914 10920 10916 10921 10928 10926 10927 10927 10928 10925 10927 10930 10933 10938 10937 10936 10935 10935 10939 10936 10937 10936 10938 10939 10939 10940 10942 10946 10948 10951 10955 10957
10861 10865 10867 10869 10871 10875 10879 10885 10886 10888 10893 10901 10907 10912 10909 10912 10920 10920 10922 10924 10924 10923 10922 10924 10927 10929 10929 10928 10928 10930 10934 10936 10934 10935 10938 10939 10939 10941 10942 10943 10946 10950 10953 10955
10853 10857 10855 10859 10862 10868 10870 10873 10875 10879 10885 10891 10897 10897 10900 10905 10911 10908 10911 10914 10921 10915 10916 10919 10920 10920 10921 10918 10918 10923 10926 10931 10931 10932 10934 10936 10938 10940 10942 10942 10943 10947 10950 10954
10843 10846 10847 10850 10852 10852 10857 10859 10866 10873 10879 10883 10888 10889 10892 10899 10903 10903 10904 10908 10909 10907 10907 10912 10913 10913 10913 10910 10912 10915 10919 10924 10926 10927 10930 10931 10934 10937 10940 10941 10942 10943 10946 10949
10831 10838 10841 10842 10843 10846 10850 10852 10859 10865 10869 10874 10875 10881 10884 10891 10896 10901 10899 10902 10903 10903 10902 10904 10906 10906 10905 10903 10905 10912 10913 10916 10919 10920 10922 10926 10928 10932 10935 10937 10938 10940 10943 10944
10820 10825 10831 10830 10833 10837 10840 10844 10849 10853 10859 10864 10867 10872 10878 10885 10891 10894 10895 10896 10897 10896 10895 10895 10897 10896 10896 10898 10903 10907 10908 10909 10912 10913 10914 10917 10921 10924 10928 10932 10934 10936 10937 10939
10806 10812 10818 10818 10822 10829 10835 10834 10834 10842 10850 10856 10862 10868 10874 10879 10883 10886 10888 10890 10891 10891 10890 10889 10890 10892 10895 10898 10899 10902 10901 10904 10905 10906 10907 10908 10912 10916 10920 10923 10927 10930 10932 10933
10788 10797 10806 10807 10811 10822 10823 10822 10827 10836 10841 10849 10857 10862 10870 10873 10877 10880 10882 10883 10884 10885 10883 10882 10887 10891 10891 10894 10896 10894 10897 10899 10900 10900 10900 10901 10904 10909 10911 10916 10920 10924 10926 10928
10769 10780 10794 10796 10801 10811 10812 10812 10821 10829 10834 10842 10850 10858 10862 10866 10871 10873 10874 10878 10880 10880 10881 10882 10882 10886 10888 10889 10888 10888 10890 10893 10894 10896 10894 10896 10898 10902 10906 10909 10913 10917 10921 10925
10750 10760 10778 10787 10791 10799 10799 10802 10812 10821 10827 10833 10843 10848 10853 10857 10861 10864 10869 10874 10876 10875 10875 10875 10877 10880 10880 10883 10884 10883 10884 10887 10887 10891 10890 10892 10894 10897 10902 10905 10908 10913 10916 10920
10729 10735 10754 10768 10779 10786 10784 10789 10802 10810 10818 10822 10830 10835 10841 10847 10853 10859 10862 10867 10868 10868 10868 10869 10868 10871 10872 10875 10876 10877 10878 10880 10881 10884 10887 10888 10890 10893 10896 10899 10903 10907 10911 10914
10705 10715 10732 10752 10764 10772 10775 10782 10794 10806 10811 10812 10818 10827 10831 10840 10844 10849 10854 10857 10859 10859 10859 10861 10862 10863 10865 10866 10867 10871 10872 10875 10878 10879 10883 10885 10886 10888 10891 10894 10898 10902 10906 10910
10675 10696 10713 10735 10749 10758 10763 10771 10784 10793 10799 10805 10811 10816 10822 10830 10836 10842 10845 10848 10850 10851 10852 10854 10855 10857 10860 10860 10861 10864 10866 10868 10873 10876 10878 10879 10881 10884 10886 10889 10892 10895 10898 10903
10652 10677 10692 10712 10726 10740 10750 10760 10776 10785 10792 10795 10803 10809 10814 10820 10824 10831 10837 10840 10841 10843 10844 10844 10846 10849 10851 10854 10854 10857 10860 10862 10867 10871 10872 10874 10875 10878 10881 10884 10887 10888 10890 10894
10631 10654 10675 10694 10709 10724 10735 10751 10767 10777 10783 10787 10793 10803 10810 10814 10818 10822 10828 10833 10835 10834 10836 10839 10839 10841 10844 10846 10848 10849 10854 10857 10860 10864 10865 10867 10870 10873 10876 10879 10880 10881 10883 10886
10611 10634 10653 10672 10691 10710 10724 10740 10758 10767 10774 10783 10787 10795 10800 10808 10811 10817 10824 10827 10830 10832 10832 10834 10834 10836 10838 10840 10842 10843 10846 10851 10852 10856 10859 10861 10864 10867 10869 10872 10874 10876 10877 10880